Location: Newark
(49.8348°N, 24.0280°E)
Time: 11:19:53
(UTC+00:00)

S-56A Canister/Altair - Pass Details

Date: 04 February 2020
Orbit: 633 x 2500 km, 38.9° (Epoch: 25 February)

Event Time Altitude Azimuth Distance (km) Brightness Sun altitude
Rises 19:23:09 0° 266° (W) 4,384 12.1 -38.5°
Reaches altitude 10° 19:27:10 10° 254° (WSW) 3,063 11.0 -39.1°
Enters shadow 19:30:13 19° 233° (SW) 2,224 10.0 -39.5°
Maximum altitude 19:32:28 22° 206° (SSW) 1,885 - -39.9°
Drops below altitude 10° 19:36:36 10° 155° (SSE) 2,328 - -40.5°
Sets 19:39:12 0° 140° (SE) 3,100 - -40.8°
